Location: Mason Neck State Park
(38.6428°N, 77.1981°W)
Time: 01:13:45
(UTC-04:00)

Cosmos 2278 Rocket - Visible Passes

Search period start: 30 June 2015 00:00
Search period end: 10 July 2015 00:00
Orbit: 842 x 845 km, 71.0° (Epoch: 28 June)

Date Brightness Start Highest point End Pass type
(mag) Time Alt. Az. Time Alt. Az. Time Alt. Az.
04 Jul 3.6 05:14:30 10° S 05:19:35 37° ESE 05:24:46 10° NE visible
05 Jul 3.7 05:00:04 10° SSE 05:05:05 35° ESE 05:10:13 10° NE visible
06 Jul 3.7 04:45:38 10° SSE 04:50:35 33° ESE 04:55:39 10° NE visible
07 Jul 3.7 04:31:12 10° SSE 04:36:05 32° ESE 04:41:06 10° NE visible
08 Jul 3.7 04:16:47 10° SSE 04:21:35 31° ESE 04:26:32 10° NE visible
09 Jul 3.8 04:02:22 10° SSE 04:07:05 29° ESE 04:11:57 10° NE visible
